This is the latest recevied weather packets stored in our database for station/object KD4VIF. If no packets are shown the sender has not sent any weather packets the latest 10 day(s).
| Time | Temp. | Humidity | Pressure | Rain* | Wind** | Luminosity | Snow |
|---|---|---|---|---|---|---|---|
| 1778012198 | 25° C | 100% | 1013.7 hPa | 0 mm | 0.45 m/s, 47° | - | - |
| 1778011598 | 25° C | 100% | 1013.9 hPa | 0 mm | 0 m/s | - | - |
| 1778011298 | 25.56° C | 100% | 1013.9 hPa | 0 mm | 0.45 m/s, 175° | - | - |
| 1778010999 | 25.56° C | 100% | 1014 hPa | 0 mm | 0 m/s | - | - |
| 1778010400 | 25.56° C | 100% | 1014.3 hPa | 0 mm | 0 m/s | - | - |
| 1778010098 | 25.56° C | 100% | 1014.2 hPa | 0 mm | 0.45 m/s, 264° | - | - |
| 1778009799 | 25.56° C | 100% | 1014.3 hPa | 0 mm | 0.89 m/s, 303° | - | - |
| 1778009498 | 25.56° C | 100% | 1014.2 hPa | 0 mm | 1.34 m/s, 147° | - | - |
| 1778009198 | 25.56° C | 100% | 1014.2 hPa | 0 mm | 1.34 m/s, 295° | - | - |
| 1778008599 | 25.56° C | 100% | 1014.4 hPa | 0 mm | 0.45 m/s, 312° | - | - |
| 1778007998 | 25.56° C | 100% | 1014.6 hPa | 0 mm | 1.79 m/s, 317° | - | - |
| 1778007699 | 25.56° C | 100% | 1014.5 hPa | 0 mm | 0.89 m/s, 306° | - | - |
| 1778004999 | 25° C | 100% | 1015.1 hPa | 0 mm | 0 m/s | - | - |
| 1778004398 | 25° C | 100% | 1015 hPa | 0 mm | 0.89 m/s, 345° | - | - |
| 1778004098 | 25° C | 100% | 1015.3 hPa | 0 mm | 0.45 m/s, 277° | - | - |
| 1778003798 | 25.56° C | 100% | 1015.2 hPa | 0 mm | 0.89 m/s, 344° | - | - |
| 1778003199 | 25° C | 100% | 1015.2 hPa | 0 mm | 0.45 m/s, 254° | - | - |
| 1778002898 | 24.44° C | 100% | 1015.4 hPa | 0 mm | 0 m/s | - | - |
| 1778002598 | 24.44° C | 100% | 1015.3 hPa | 0 mm | 0 m/s | - | - |
| 1778000198 | 23.89° C | 100% | 1015.7 hPa | 0 mm | 0 m/s | - | - |
| 1777999898 | 23.89° C | 100% | 1015.9 hPa | 0 mm | 0.45 m/s, 310° | - | - |
| 1777999298 | 23.89° C | 100% | 1015.9 hPa | 0 mm | 1.34 m/s, 206° | - | - |
| 1777998697 | 23.89° C | 100% | 1016 hPa | 0 mm | 0.89 m/s, 219° | - | - |
| 1777998398 | 23.33° C | 100% | 1016 hPa | 0 mm | 0.89 m/s, 285° | - | - |
| 1777997198 | 23.33° C | 100% | 1016.3 hPa | 0 mm | 0 m/s | - | - |
* Rain latest hour (hover to see other rain measurements)
** Current wind speed in m/s (hover to see current wind gust speed)